Regional Weather Roundup
Issued by NWS

Home | Current Version | Previous Version | Text Only | Print | Product List | Glossary Off
Versions: 1 2 3 4 5 6 7 8 9 10 11 12 13 14 15 16 17 18 19 20 21 22 23 24 25 26 27 28 29 30 31 32 33 34 35 36 37 38 39 40 41 42 43 44 45 46 47 48 49 50

000
ASUS43 KMKX 300421
RWRWI

WISCONSIN REGIONAL WEATHER ROUNDUP
NATIONAL WEATHER SERVICE MILWAUKEE/SULLIVAN WI
1100 PM CDT WED MAR 29 2017

NOTE: "FAIR" INDICATES FEW OR NO CLOUDS BELOW 12,000 FEET WITH NO
SIGNIFICANT WEATHER AND/OR OBSTRUCTIONS TO VISIBILITY.

WIZ001-002-006>008-014>016-023>028-300500-
NORTHWEST WISCONSIN

CITY           SKY/WX    TMP DP  RH WIND       PRES   REMARKS
SUPERIOR ARPT  CLOUDY    33  31  92 NE13G18   30.19F WCI  24
ASHLAND        PTCLDY    31  28  89 N6        30.18F WCI  25
HAYWARD        MOCLDY    38  30  73 N3        30.14F
SIREN          CLOUDY    38  31  76 NE3       30.13F
CUMBERLAND     CLOUDY    39  34  81 SE6       30.12F WCI  35
RICE LAKE      CLOUDY    41  35  78 CALM      30.14F
CHETEK         CLOUDY    41  35  79 SE6       30.14F
LADYSMITH      CLOUDY    42  31  64 SE7       30.16F
EAU CLAIRE     CLOUDY    40  37  89 E9        30.12F WCI  34
MENOMONIE      CLOUDY    40  38  91 E10       30.12F WCI  34
NEW RICHMOND   CLOUDY    41  35  80 E9        30.11F
OSCEOLA        CLOUDY    42  37  80 E8        30.14F
$$

WIZ003>005-009-010-017-018-300500-
NORTH CENTRAL WISCONSIN

CITY           SKY/WX    TMP DP  RH WIND       PRES   REMARKS
MANITOWISH WTR CLOUDY    39  28  63 SE5       30.16F
ARBOR VITAE    CLOUDY    40  29  64 SE5       30.15F
WOODRUFF       CLOUDY    40  29  64 SE5       30.15F
RHINELANDER    CLOUDY    39  27  62 SE10      30.17F WCI  32
EAGLE RIVER    MOCLDY    37  25  60 SE6       30.17F WCI  33
LAND O LAKES   CLOUDY    37  26  63 SE5       30.19F WCI  34
PHILLIPS       CLOUDY    39  29  68 SE3       30.14F
TOMAHAWK       CLOUDY    37  27  68 SE3       30.17F
MEDFORD        CLOUDY    35  31  84 E8        30.15F WCI  29
MERRILL        CLOUDY    37  32  84 SE9       30.18F WCI  30
$$

WIZ029-030-035-036-043>047-300500-
CENTRAL WISCONSIN

CITY           SKY/WX    TMP DP  RH WIND       PRES   REMARKS
WAUSAU         CLOUDY    34  31  88 E13       30.16F WCI  25
MOSINEE        FLURRIES  34  32  93 E10       30.17F WCI  26
MARSHFIELD     LGT RAIN  35  33  92 E14       30.14F WCI  26
STEVENS POINT  LGT RAIN  32  32 100 E9        30.18F WCI  24
WAUPACA        LGT RAIN  35  32  89 NE6       30.19F WCI  30
WAUTOMA        CLOUDY    36  31  82 NE12      30.16F WCI  28
WISC RAPIDS    LGT RAIN  35  35 100 E12       30.15F WCI  27
CAMP DOUGLAS   CLOUDY    37  32  81 NE13      30.12F WCI  29
$$

WIZ011>013-019>022-031-037>040-048>050-300500-
NORTHEAST WISCONSIN

CITY           SKY/WX    TMP DP  RH WIND       PRES   REMARKS
ANTIGO         CLOUDY    34  25  69 E12G17    30.19F WCI  26
SHAWANO        LGT RAIN  36  32  85 NE5       30.21F WCI  32
OCONTO         CLOUDY    35  30  83 CALM      30.23F
STURGEON BAY   LGT RAIN  36  32  85 NE3       30.20F
GREEN BAY      CLOUDY    37  32  82 NE10      30.20F WCI  30
MANITOWOC      LGT RAIN  37  32  82 NE6       30.20F WCI  32
APPLETON       LGT SNOW N/A N/A N/A NE12      30.17F
CLINTONVILLE   LGT RAIN  32  32 100 NE5       30.20F WCI  27
OSHKOSH        CLOUDY    37  31  78 E9        30.15F WCI  30
$$

WIZ032>034-041-042-053>061-300500-
SOUTHWEST WISCONSIN

CITY           SKY/WX    TMP DP  RH WIND       PRES   REMARKS
LA CROSSE      LGT RAIN  42  36  79 E14G23    30.09F
SPARTA         LGT RAIN  38  36  89 E12       30.12F WCI  31
VIROQUA        CLOUDY    37  35  90 E16G22    30.05F WCI  28
BOSCOBEL       LGT RAIN  40  32  73 E8G23     30.07F WCI  34
PRAIRIE DU CHI LGT RAIN  39  38  97 E14G24    30.03F WCI  31
PLATTEVILLE    CLOUDY    39  39  99 NE23G33   30.01F WCI  29
$$

WIZ056-057-062-063-064-067-068-300500-
SOUTH CENTRAL WISCONSIN

CITY           SKY/WX    TMP DP  RH WIND       PRES   REMARKS
REEDSBURG      LGT RAIN  37  34  87 E9        30.11F WCI  31
BARABOO/DELLS  LGT RAIN  38  31  75 E14       30.12S WCI  30
LONE ROCK      CLOUDY    39  36  89 E20       30.08F FOG     WCI  29
MINERAL POINT  CLOUDY    37  37 100 E26G33    30.03F WCI  26
MADISON        LGT RAIN  38  35  89 E17       30.11F WCI  28
MIDDLETON      CLOUDY    40  38  93 E13G21    30.10F WCI  32
WATERTOWN      CLOUDY    37  37 100 NE12      30.11F WCI  30
MONROE         CLOUDY    37  36  93 NE16G23   30.03F WCI  28
JANESVILLE     DRIZZLE   41  39  93 NE17G23   30.06F
$$

WIZ051-052-058>065-066-070>072-300500-
SOUTHEAST WISCONSIN

CITY           SKY/WX    TMP DP  RH WIND       PRES   REMARKS
MILWAUKEE      CLOUDY    38  35  89 NE15      30.11F WCI  29
WAUKESHA       DRIZZLE   36  34  93 NE12      30.13F WCI  27
MILWAUKEE/TIMM CLOUDY    36  32  87 NE12      30.15S WCI  27
RACINE         LGT RAIN  40  36  86 NE15      30.12F WCI  32
KENOSHA        CLOUDY    42  38  85 NE21G29   30.09F
FOND DU LAC    CLOUDY    38  29  70 NE14      30.15F WCI  30
SHEBOYGAN      CLOUDY    37  32  82 NE16      30.17F WCI  28
WEST BEND      LGT RAIN  36  34  93 NE8       30.16F WCI  29
JUNEAU         RAIN      36  32  85 NE7       30.14F WCI  31
$$

LSZ147-162-300500-
LAKE SUPERIOR

STATION/POSITION TIME  TEMP    WIND        PRES    WAVE
                       AIR SEA DIR/SP/G            HT/PER
                 (UTC) (F)     (DEG/KT/KT) (MB)    (FT/S)
DEVILS ISLAND    0400   34      50/ 12/ 13 1023.2F
PORT WING        0340   34      30/ 12/ 14 1022.4F
SAXON HARBOR     0330   31     200/  2/  2 1021.7F
$$

LMZ867-665-643>646-300500-
LAKE MICHIGAN

STATION/POSITION TIME  TEMP    WIND        PRES    WAVE
                       AIR SEA DIR/SP/G            HT/PER
                 (UTC) (F)     (DEG/KT/KT) (MB)    (FT/S)
CHAMBERS ISLAND  0340   33      10/  6/  8 1023.4F
NORTHPORT PIER   0400   36      70/ 10/ 17 1023.0
SISTER BAY       0306   37      80/  7/ 11   N/A
KEWAUNEE LAKESHO 0354   37      30/ 11/ 15 1022.5F
SHEBOYGAN LAKESH 0400   37      20/ 11/ 12 1022.1F
PORT WASHINGTON  0340   38      20/ 10/ 13 1022.7F
MILWAUKEE LAKESH 0400   38      20/ 15/ 17   N/A
KENOSHA   LAKESH 0400   40      60/ 18/ 21 1019.0
$$

TC  - TEMPERATURE IN CELSIUS
VSB - VISIBILITY IN STATUTE MILES
WCI - WIND CHILL INDEX
HX  - HEAT INDEX




USA.gov is the U.S. government's official web portal to all federal, state and local government web resources and services.